www.pogodaiklimat.ru
Время
(UTC), дата
12:54 30.12
13:24 30.12
13:41 30.12
13:54 30.12
14:00 30.12
14:24 30.12
14:54 30.12
15:09 30.12
15:48 30.12
15:54 30.12
16:04 30.12
16:30 30.12
16:54 30.12
17:54 30.12
18:54 30.12
19:01 30.12
19:27 30.12
19:35 30.12
19:54 30.12
20:54 30.12
21:15 30.12
21:54 30.12
22:54 30.12
23:54 30.12
00:54 30.12
01:54 30.12
02:54 30.12
03:54 30.12
04:54 30.12
05:54 30.12
06:54 31.12
07:54 31.12
08:54 31.12
09:50 31.12
09:54 31.12
10:54 31.12
11:54 31.12
12:54 31.12
13:54 31.12
14:54 31.12
15:54 31.12
16:54 31.12
17:54 31.12
18:54 31.12
19:50 31.12
19:54 31.12
20:54 31.12
21:54 31.12
Ветер
(напр.,м/с)
Видим. Явления Облачность Т
(С)
Тd
(С)
f
(%)
Тe
(С)
Тes
(С)
Комфортность P
(гПа)
Po
(гПа)
Тmin
(С)
Tmax
(С)
R
(мм)
R24
(мм)
S
(см)
0 16 км 10/10 1080 м -1.7 -5.0 78 -3 -3 1024.3 875.4
0 3 км слабый снег, дымка 10/10 840 м -2.2 -4.4 85 -3 -3 875.4
С 1 3 км слабый снег, дымка 10/10 180 м -2.2 -3.9 88 -6 -6 875.7
0 3 км слабый снег, дымка 10/10 180 м -2.2 -3.9 88 -3 -3 1024.8 875.7
С 1 3 км слабый снег, дымка 10/10 180 м -2.2 -3.9 88 -6 -6 875.7
С 1 2 км слабый снег, дымка 10/10 750 м -2.8 -3.9 92 -6 -6 876.0
0 2 км слабый снег, дымка 10/10 810 м -2.2 -3.3 92 -3 -3 1025.5 876.3
0 3 км слабый снег, дымка 10/8 960 м
[средняя]
-2.2 -3.3 92 -3 -3 876.6
С 1 3 км слабый снег, дымка 10/8 240 м
[средняя]
-2.0 -4.0 86 -5 -5 876.9
С 1 3 км слабый снег, дымка 10/8 270 м
[средняя]
-1.7 -3.9 85 -5 -5 1026.1 876.9
С 1 3 км слабый снег, дымка 10/8 270 м
[средняя]
-1.7 -3.9 85 -5 -5 876.9
С 2 3 км слабый снег, дымка 10/10 300 м -1.7 -3.9 85 -6 -6 877.1
0 4 км слабый снег, дымка 10/10 330 м -1.1 -3.3 85 -2 -2 1026.4 877.1 -2.8 -1.1
0 4 км слабый снег 10/10 330 м -1.1 -3.9 81 -2 -2 1025.7 876.6
СЗ 2 4 км слабый снег 10/10 330 м -1.1 -3.9 81 -5 -5 1025.4 876.6
З 1 4 км слабый снег 10/10 330 м -1.1 -3.9 81 -4 -4 876.6
СЗ 1 4 км слабый снег 10/10 360 м -0.6 -3.9 78 -4 -4 876.3
0 11 км слабый снег 8/8 330 м -0.6 -3.9 78 -2 -0 876.3
С 1 13 км слабый снег 8/8 390 м -0.6 -3.9 78 -4 -3 1025.0 876.3
СЗ 3 14 км слабый снег 8/8 390 м
[средняя]
0.0 -3.3 78 -5 -4 1025.2 876.6
З 1 14 км слабый снег 8/8 450 м
[средняя]
0.0 -3.3 78 -3 -2 876.6
СЗ 3 14 км 10/8 420 м
[средняя]
-0.6 -3.9 78 -6 -6 1025.9 877.1
З 3 16 км 10/10 510 м -0.6 -3.9 78 -5 -5 1026.2 877.1 -1.1 +0.6
СЗ 3 16 км 10/10 510 м -0.6 -3.9 78 -6 -6 1026.8 877.7
СЗ 3 16 км 8/8 630 м -0.6 -3.9 78 -5 -5 1027.5 878.3
С 3 16 км 8/8 750 м -1.1 -4.4 78 -6 -6 1027.6 878.3
СЗ 1 16 км 8/8 810 м -1.1 -4.4 78 -4 -4 1027.7 878.3
0 16 км 8/8 780 м -1.7 -4.4 82 -3 -3 1028.3 878.9
0 16 км 10/10 750 м -1.7 -5.6 75 -3 -3 1028.0 878.9 -2.2 -0.6
0 16 км 10/10 780 м -1.7 -5.0 78 -3 -3 1027.6 878.3
З 2 16 км 10/10 750 м -2.2 -6.1 75 -7 -7 1028.1 878.6
0 16 км 10/10 780 м -2.2 -6.1 75 -3 -3 1028.5 879.2
В 2 16 км 10/10 840 м -1.7 -6.1 72 -6 -6 1028.5 879.5
Ю 1 16 км 10/10 900 м -2.0 -6.0 74 -5 -5 879.5
ЮЗ 1 16 км 10/10 900 м -2.2 -6.1 75 -5 -5 1028.8 879.5
ЮЗ 1 16 км 10/10 870 м -2.2 -6.1 75 -5 -5 1028.2 878.9 -2.2 -1.7 0.8
Ю 1 16 км 10/10 810 м -2.2 -6.7 71 -5 -5 1028.0 878.9
Ю 2 16 км 10/10 870 м -2.2 -7.8 65 -6 -6 1028.2 878.9
Ю 2 16 км 8/8 840 м -2.2 -7.8 65 -6 -6 1028.4 878.9
Ю 1 16 км 8/8 810 м
[средняя]
-1.7 -7.2 66 -5 -5 1028.4 879.2
С 3 16 км 8/8 840 м
[средняя]
-1.7 -5.0 78 -7 -7 1028.8 879.2
0 16 км 8/8 450 м
[средняя]
-0.6 -5.6 69 -1 -1 1028.7 879.5 -2.8 -0.6
СЗ 3 16 км 8/8 480 м -1.1 -5.6 71 -6 -5 1027.1 878.0
СЗ 3 16 км 8/8 450 м
[средняя]
-0.6 -6.1 66 -5 -4 1026.3 877.4
0 16 км 8/5 870 м
[средняя]
0.0 -6.0 64 -1 +1 876.6
З 3 16 км 8/5 870 м
[средняя]
0.0 -6.1 63 -4 -3 1025.4 876.6
0 16 км 8/2 750 м
[средняя]
0.0 -5.6 66 -1 +1 1024.8 876.3
0 16 км 8/2 750 м
[средняя]
+0.6 -6.7 58 0 +1 1024.4 876.0
Местоположение метеостанции Salt Lake City International Airport: широта 40.7707 долгота -111.9650 высота над уровнем моря 1288 м.
В архиве по умолчанию представлена погода в Солт-Лейк-Сити за последние 1-2 суток. Обновление информации о фактической погоде в базе происходит ежечасно! Архивные данные за месяц целиком и за предыдущие месяцы Вы можете получить, выбрав интересующий диапазон дат из раскрывающегося списка и нажав кнопку "Ввод!".
Внимание! Архив погоды МЕТАР в базе сайта по станциям, не включенным в климатический монитор, хранится не более 60 дней. Нет смысла пытаться выбрать более раннюю дату.
*Определитесь, кто Вы:
Внимание! Время в таблицах - всемирное. Для получения местного времени необходимо прибавить поправку, которая равна ч.
Смотрите также архив погоды в соседних городах и на ближайших метеорологических станциях:
Партнеры нашего сайта:      
Пояснения к столбцам:
  • Ветер - указаны скорость ветра в м/с - средняя за 10 мин, порывы в срок и между сроками (в фигурных скобках) и направление, откуда дует ветер: С - северный,
  • СВ - северо-восточный, В - восточный, ЮВ - юго-восточный, Ю - южный, ЮЗ - юго-западный, З - западный, СЗ - северо-западный.
  • Видимость - горизонтальная дальность видимости в метрах или километрах. При видимости от 1 до 10 км при отсутствии осадков обычно наблюдается дымка, при ухудшении видимости до 1 км и менее - туман. В сухую погоду видимость может ухудшаться дымом, пылью или мглою.
  • Явления - указаны атмосферные явления, наблюдавшиеся в срок или в последний час перед сроком; фигурными скобками обозначены явления, наблюдавшиеся между сроками (за 1-3 часа до срока); квадратными скобками обозначены град или гололедные отложения с указанием их диаметра в мм.
  • Облачность - указаны через наклонную черту общая и нижняя облачность в баллах и высота нижней границы облаков в метрах; квадратными скобками обозначены формы облаков: Ci - перистые, Cs - перисто-слоистые, Cc - перисто-кучевые, Ac - высококучевые, As - высокослоистые, Sc - слоисто-кучевые, Ns - слоисто-дождевые, Cu - кучевые, Cb - кучево-дождевые. Подробнее классификацию облаков см. в Атласе облаков (PDF).
  • T - Температура воздуха - температура, измеренная на высоте 2 м над землей.
  • Td - Температура точки росы - температура, при понижении до которой содержащийся в воздухе водяной пар достигнет насыщения.
  • f - Относительная влажность воздуха - влажноcть воздуха, измеренная на высоте 2 м над землей.
  • Te - Эффективная температура - температура, которую ощущает одетый по сезону человек в тени. Характеристика душности погоды. При расчете учитывается влияние влажности воздуха и скорости ветра на теплоощущения человека.
  • Tes - Эффективная температура на солнце - температура, которую ощущает человек, с поправкой на солнечный нагрев. Характеристика знойности погоды. Зависит от высоты солнца над горизонтом, облачности и скорости ветра. Ночью, в пасмурную погоду, а также при ветре 12 м/с и более поправка равна нулю.
  • P - Атмосферное давление - приведенное к уровню моря атмосферное давление.
  • Po - Атмосферное давление - измеренное на уровне метеостанции атмосферное давление.
  • Tmin - Минимальная температура - минимум температуры воздуха на высоте 2 м над землей.
  • Tmax - Максимальная температура - максимум температуры воздуха на высоте 2 м над землей.
  • R - Количество осадков - Количество выпавших осадков за период времени, мм. При наведении курсора мыши на число - период времени, за который выпало указанное количество осадков.
  • R24 - Количество осадков - Количество выпавших осадков за 24 часа, мм.
  • S - Снежный покров - Высота снежного покрова, см. При наведении курсора мыши на число - состояние снежного покрова и степень покрытия местности в баллах.